FW8535 Weather Reports


time (UTC)temp
C
wind
direction
speed
KPH
gust
KPH
rain 1hr
cm
rain 24hr
cm
rain mn
cm
humidity
%
barometer
mb
20260831033033 12 252 4.8 6.4 0.00 0.00 0.00 77 1008.6
20260831032532 12 262 0.0 4.8 0.00 0.00 0.00 76 1008.5
20260831032031 13 263 0.0 4.8 0.00 0.00 0.00 76 1008.6
20260831031530 13 263 0.0 1.6 0.00 0.00 0.00 75 1008.5
20260831030526 13 263 0.0 1.6 0.00 0.00 0.00 74 1008.5
20260831030029 13 263 0.0 0.0 0.00 0.00 0.00 74 1008.7
20260831025525 13 263 0.0 0.0 0.00 0.00 0.00 74 1008.5
20260831025023 13 263 0.0 0.0 0.00 0.00 0.00 72 1008.5
20260831024523 14 263 0.0 3.2 0.00 0.00 0.00 71 1008.4
20260831024024 14 264 0.0 3.2 0.00 0.00 0.00 70 1008.3
20260831023520 15 264 1.6 3.2 0.00 0.00 0.00 70 1008.2
20260831023029 15 263 0.0 3.2 0.00 0.00 0.00 70 1008.3
20260831022519 15 264 0.0 4.8 0.00 0.00 0.00 70 1008.2
20260831022019 15 264 0.0 4.8 0.00 0.00 0.00 70 1008.2
20260831021539 15 264 3.2 4.8 0.00 0.00 0.00 69 1007.8
20260831020517 15 264 3.2 6.4 0.00 0.00 0.00 68 1007.7
20260831020015 15 264 3.2 6.4 0.00 0.00 0.00 67 1007.5
20260831015519 16 265 3.2 6.4 0.00 0.00 0.00 66 1007.4
20260831015019 16 271 3.2 4.8 0.00 0.00 0.00 66 1007.6
20260831014515 16 271 3.2 6.4 0.00 0.00 0.00 65 1007.6
20260831014014 17 271 3.2 11.3 0.00 0.00 0.00 64 1007.5
20260831013514 17 271 3.2 11.3 0.00 0.00 0.00 63 1007.3
20260831013014 17 262 3.2 9.7 0.00 0.00 0.00 64 1007.1
20260831012514 17 253 6.4 9.7 0.00 0.00 0.00 64 1007.1
20260831012014 17 245 3.2 12.9 0.00 0.00 0.00 65 1007.2
20260831011513 18 229 11.3 19.3 0.00 0.00 0.00 64 1007.2
20260831010516 18 242 12.9 20.9 0.00 0.00 0.00 64 1007.0
20260831010032 18 230 12.9 20.9 0.00 0.00 0.00 65 1007.0
20260831005515 18 223 14.5 24.1 0.00 0.00 0.00 65 1007.0
20260831005014 18 227 14.5 24.1 0.00 0.00 0.00 64 1007.0
20260831004618 18 234 17.7 24.1 0.00 0.00 0.00 64 1006.6
20260831004014 18 228 16.1 20.9 0.00 0.00 0.00 64 1006.7
20260831003514 18 228 11.3 19.3 0.00 0.00 0.00 65 1006.6
20260831003013 18 223 12.9 19.3 0.00 0.00 0.00 65 1006.6
20260831002514 18 236 12.9 24.1 0.00 0.00 0.00 66 1006.9
20260831002014 18 218 16.1 24.1 0.00 0.00 0.00 66 1006.9
20260831001527 18 227 12.9 22.5 0.00 0.00 0.00 67 1006.8
20260831000516 18 233 12.9 22.5 0.00 0.00 0.00 68 1006.9
20260831000016 17 237 11.3 16.1 0.00 0.00 0.00 70 1006.8
20260830235516 17 202 9.7 16.1 0.00 0.00 0.00 72 1006.8
20260830235017 17 236 9.7 16.1 0.00 0.00 0.00 74 1007.0
20260830234516 17 213 8.0 12.9 0.00 0.00 0.00 75 1007.1
20260830234019 16 226 8.0 11.3 0.00 0.00 0.00 75 1007.0
20260830233518 16 221 4.8 11.3 0.00 0.00 0.00 75 1007.1
20260830233016 16 235 4.8 9.7 0.00 0.00 0.00 76 1007.2
20260830232520 16 235 3.2 9.7 0.00 0.00 0.00 76 1007.3
20260830232016 16 235 4.8 9.7 0.00 0.00 0.00 75 1007.2
20260830231526 16 203 3.2 11.3 0.00 0.00 0.00 77 1007.2
20260830230513 16 167 0.0 9.7 0.00 0.00 0.00 77 1006.8
20260830230013 16 167 6.4 9.7 0.00 0.00 0.00 76 1006.6
20260830225513 16 194 0.0 6.4 0.00 0.00 0.00 74 1006.7
20260830225013 16 194 1.6 12.9 0.00 0.00 0.00 73 1006.4
20260830224513 16 236 3.2 22.5 0.00 0.00 0.00 72 1007.1
20260830224013 17 261 12.9 30.6 0.00 0.00 0.00 73 1008.1
20260830223513 17 238 12.9 30.6 0.00 0.00 0.00 70 1008.3
20260830223017 18 205 14.5 27.4 0.00 0.00 0.00 66 1008.5
20260830222511 18 275 11.3 33.8 0.00 0.00 0.00 62 1007.8
20260830222013 18 280 17.7 41.8 0.00 0.00 0.00 62 1008.5
20260830221511 20 238 22.5 32.2 0.00 0.00 0.00 59 1008.6
20260830220512 20 274 14.5 35.4 0.00 0.00 0.00 57 1008.1
20260830220013 20 235 12.9 35.4 0.00 0.00 0.00 57 1007.9
20260830215510 20 265 16.1 32.2 0.00 0.00 0.00 55 1007.5
20260830215009 20 242 19.3 37.0 0.00 0.00 0.00 56 1007.0
20260830214510 20 276 19.3 37.0 0.00 0.00 0.00 56 1007.1
20260830214008 21 317 17.7 37.0 0.00 0.00 0.00 57 1007.1
20260830213512 20 291 17.7 43.5 0.00 0.00 0.00 58 1006.7
20260830213010 20 296 19.3 43.5 0.00 0.00 0.00 58 1006.8
20260830212508 20 269 17.7 41.8 0.00 0.00 0.00 58 1006.7
20260830212009 20 269 22.5 38.6 0.00 0.00 0.00 56 1006.7
20260830211516 20 276 19.3 38.6 0.00 0.00 0.00 53 1006.6
20260830210503 21 287 17.7 38.6 0.00 0.00 0.00 55 1006.6
20260830210007 21 338 22.5 38.6 0.00 0.00 0.00 55 1006.7
20260830205503 21 279 16.1 35.4 0.00 0.00 0.00 58 1006.6
20260830205101 21 278 17.7 35.4 0.00 0.00 0.00 60 1006.6
20260830204600 21 277 14.5 32.2 0.00 0.00 0.00 64 1006.3
20260830204503 21 291 14.5 33.8 0.00 0.00 0.00 64 1006.5
20260830204102 21 317 14.5 33.8 0.00 0.00 0.00 64 1006.4
20260830203600 21 314 16.1 37.0 0.00 0.00 0.00 65 1006.5
20260830203116 22 294 17.7 37.0 0.00 0.00 0.00 64 1005.9
20260830202600 22 281 12.9 27.4 0.00 0.00 0.00 67 1005.4
20260830202057 21 30 8.0 17.7 0.00 0.00 0.00 71 1005.4
20260830201559 20 234 3.2 16.1 0.00 0.00 0.00 74 1005.3
20260830200557 21 313 6.4 19.3 0.00 0.00 0.00 70 1005.4
20260830195556 22 299 6.4 20.9 0.00 0.00 0.00 62 1005.4
20260830195057 23 269 9.7 22.5 0.00 0.00 0.00 60 1005.1
20260830194555 23 277 9.7 24.1 0.00 0.00 0.00 61 1004.8
20260830194059 23 275 11.3 24.1 0.00 0.00 0.00 62 1004.5
20260830193553 23 306 12.9 29.0 0.00 0.00 0.00 63 1004.5
20260830193055 23 264 9.7 25.7 0.00 0.00 0.00 62 1004.5
20260830192553 24 268 9.7 27.4 0.00 0.00 0.00 62 1004.6
20260830192053 24 284 14.5 27.4 0.00 0.00 0.00 60 1004.2
20260830191558 24 265 12.9 25.7 0.00 0.00 0.00 60 1004.3
20260830190554 25 286 12.9 25.7 0.00 0.00 0.00 58 1004.4
20260830190053 25 317 11.3 25.7 0.00 0.00 0.00 57 1004.7
20260830185556 26 300 11.3 25.7 0.00 0.00 0.00 57 1004.5
20260830185053 26 294 9.7 22.5 0.00 0.00 0.00 57 1004.3
20260830184552 26 315 11.3 25.7 0.00 0.00 0.00 56 1004.3
20260830184051 26 257 12.9 25.7 0.00 0.00 0.00 57 1004.2
20260830183554 26 276 11.3 19.3 0.00 0.00 0.00 56 1004.1
20260830183108 26 278 8.0 20.9 0.00 0.00 0.00 55 1004.2
20260830182551 26 254 12.9 25.7 0.00 0.00 0.00 55 1004.3
20260830182051 26 291 12.9 25.7 0.00 0.00 0.00 57 1004.1
20260830181557 26 256 9.7 24.1 0.00 0.00 0.00 58 1004.0
20260830180554 27 271 9.7 32.2 0.00 0.00 0.00 57 1003.9
20260830180107 27 259 12.9 32.2 0.00 0.00 0.00 58 1003.6
20260830175554 26 214 8.0 17.7 0.00 0.00 0.00 59 1003.7
20260830175052 26 323 6.4 16.1 0.00 0.00 0.00 59 1003.4
20260830174555 25 339 4.8 16.1 0.00 0.00 0.00 61 1003.4
20260830174053 25 355 4.8 17.7 0.00 0.00 0.00 61 1003.7
20260830173550 25 320 4.8 17.7 0.00 0.00 0.00 61 1003.7
20260830173115 25 262 4.8 17.7 0.00 0.00 0.00 62 1003.6
20260830172551 25 347 6.4 17.7 0.00 0.00 0.00 62 1003.5
20260830172051 25 230 8.0 22.5 0.00 0.00 0.00 61 1003.6
20260830171600 25 341 11.3 22.5 0.00 0.00 0.00 61 1003.6
20260830170548 25 275 11.3 20.9 0.00 0.00 0.00 56 1003.5
20260830170049 26 309 9.7 19.3 0.00 0.00 0.00 56 1003.4
20260830165550 26 270 9.7 20.9 0.00 0.00 0.00 57 1003.5
20260830165048 26 282 12.9 24.1 0.00 0.00 0.00 55 1003.4
20260830164548 26 265 11.3 24.1 0.00 0.00 0.00 53 1003.4
20260830164047 26 245 12.9 25.7 0.00 0.00 0.00 51 1003.4
20260830163546 25 231 14.5 25.7 0.00 0.00 0.00 51 1003.3
20260830163044 25 234 16.1 25.7 0.00 0.00 0.00 51 1003.2
20260830162544 25 229 17.7 25.7 0.00 0.00 0.00 50 1003.4
20260830162045 25 237 19.3 30.6 0.00 0.00 0.00 50 1003.3
20260830161552 25 233 17.7 30.6 0.00 0.00 0.00 50 1003.3
20260830160540 25 232 19.3 30.6 0.00 0.00 0.00 50 1003.3
20260830160039 25 220 16.1 27.4 0.00 0.00 0.00 52 1003.3
20260830155538 24 221 17.7 27.4 0.00 0.00 0.00 53 1003.0
20260830155038 23 215 16.1 27.4 0.00 0.00 0.00 54 1003.1
20260830154537 23 213 20.9 29.0 0.00 0.00 0.00 54 1003.2
20260830154037 23 227 17.7 29.0 0.00 0.00 0.00 54 1003.1
20260830153535 23 234 20.9 29.0 0.00 0.00 0.00 55 1003.4
20260830153035 23 221 17.7 25.7 0.00 0.00 0.00 56 1003.3
20260830152532 22 223 17.7 27.4 0.00 0.00 0.00 57 1003.3
20260830152031 22 208 16.1 27.4 0.00 0.00 0.00 59 1003.3
20260830151530 22 207 14.5 20.9 0.00 0.00 0.00 59 1003.5
20260830150531 21 211 17.7 22.5 0.00 0.00 0.00 64 1003.4
20260830150031 21 228 14.5 20.9 0.00 0.00 0.00 69 1003.6
20260830145530 20 180 12.9 19.3 0.00 0.00 0.00 71 1003.6
20260830145030 20 214 12.9 19.3 0.00 0.00 0.00 73 1003.6
20260830144533 20 203 9.7 20.9 0.00 0.00 0.00 75 1003.5
20260830144028 20 192 12.9 20.9 0.00 0.00 0.00 75 1003.6
20260830143529 20 206 12.9 17.7 0.00 0.00 0.00 76 1003.6
20260830143030 20 190 11.3 16.1 0.00 0.00 0.00 78 1003.5
20260830142528 19 211 8.0 16.1 0.00 0.00 0.00 80 1003.7
20260830142028 19 201 8.0 16.1 0.00 0.00 0.00 81 1003.7
20260830141529 19 201 8.0 14.5 0.00 0.00 0.00 82 1003.8
20260830140530 18 198 8.0 14.5 0.00 0.00 0.00 86 1003.8
20260830140026 18 195 8.0 12.9 0.00 0.00 0.00 86 1003.6
20260830135524 18 190 8.0 12.9 0.00 0.00 0.00 87 1003.7
20260830135029 17 188 6.4 12.9 0.00 0.00 0.00 89 1003.8
20260830134538 17 180 8.0 11.3 0.00 0.00 0.00 90 1003.8
20260830134023 17 175 6.4 9.7 0.00 0.00 0.00 91 1003.6
20260830133524 17 163 6.4 11.3 0.00 0.00 0.00 92 1003.5
20260830133027 17 55 3.2 6.4 0.00 0.00 0.00 92 1003.6
20260830132524 17 49 0.0 4.8 0.00 0.00 0.00 92 1003.7
20260830132023 16 44 0.0 0.0 0.00 0.00 0.00 92 1003.7
20260830131524 16 44 0.0 0.0 0.00 0.00 0.00 92 1003.7
20260830130523 16 44 0.0 0.0 0.00 0.00 0.00 91 1003.8
20260830130021 16 44 0.0 0.0 0.00 0.00 0.00 90 1003.9
20260830125521 16 44 0.0 0.0 0.00 0.00 0.00 89 1003.8
20260830125021 16 44 0.0 0.0 0.00 0.00 0.00 89 1003.9
20260830124522 16 44 0.0 0.0 0.00 0.00 0.00 89 1004.0
20260830124020 16 44 0.0 0.0 0.00 0.00 0.00 89 1003.9
20260830123520 16 44 0.0 0.0 0.00 0.00 0.00 90 1004.0
20260830123021 16 44 0.0 0.0 0.00 0.00 0.00 90 1004.1
20260830122520 16 44 0.0 0.0 0.00 0.00 0.00 91 1004.1
20260830122019 16 44 0.0 0.0 0.00 0.00 0.00 91 1004.1
20260830121519 16 44 0.0 1.6 0.00 0.00 0.00 89 1004.2
20260830120521 16 44 0.0 0.0 0.00 0.00 0.00 90 1004.2
20260830120022 16 44 0.0 0.0 0.00 0.00 0.00 90 1004.1
20260830115521 16 44 0.0 0.0 0.00 0.00 0.00 89 1004.2
20260830115024 16 44 0.0 0.0 0.00 0.00 0.00 90 1004.1
20260830114521 16 44 0.0 0.0 0.00 0.00 0.00 89 1003.9
20260830114020 16 44 0.0 0.0 0.00 0.00 0.00 89 1004.0
20260830113520 16 44 0.0 1.6 0.00 0.00 0.00 89 1003.9
20260830113024 16 44 0.0 1.6 0.00 0.00 0.00 89 1003.9
20260830112519 16 44 0.0 0.0 0.00 0.00 0.00 90 1004.0
20260830112021 16 44 0.0 1.6 0.00 0.00 0.00 89 1003.8
20260830111517 16 44 0.0 3.2 0.00 0.00 0.00 89 1003.8
20260830110515 16 44 1.6 4.8 0.00 0.00 0.00 90 1003.6
20260830110016 17 44 0.0 3.2 0.00 0.00 0.00 90 1003.6
20260830105513 17 44 0.0 4.8 0.00 0.00 0.00 90 1003.7
20260830105012 17 44 1.6 4.8 0.00 0.00 0.00 90 1003.3
20260830104510 17 44 0.0 1.6 0.00 0.00 0.00 90 1003.3
20260830104010 18 44 0.0 3.2 0.00 0.00 0.00 90 1003.3
20260830103509 18 44 0.0 4.8 0.00 0.00 0.00 90 1003.3
20260830103009 18 44 0.0 4.8 0.00 0.00 0.00 90 1003.1
20260830102509 18 44 1.6 8.0 0.00 0.00 0.00 90 1003.0
20260830102007 18 44 1.6 8.0 0.00 0.00 0.00 90 1003.1
20260830101507 18 47 4.8 8.0 0.00 0.00 0.00 90 1003.0
20260830100506 18 39 3.2 9.7 0.00 0.00 0.00 90 1003.0
20260830100007 18 38 3.2 9.7 0.00 0.00 0.00 89 1003.1
20260830095505 18 38 4.8 8.0 0.00 0.00 0.00 89 1003.2
20260830095005 18 51 0.0 6.4 0.00 0.00 0.00 87 1003.1
20260830094504 18 54 0.0 4.8 0.00 0.00 0.00 86 1003.2
20260830094004 18 54 3.2 4.8 0.00 0.00 0.00 85 1003.2
20260830093503 18 54 3.2 4.8 0.00 0.00 0.00 84 1003.1
20260830093003 18 54 3.2 4.8 0.00 0.00 0.00 83 1003.3
20260830092503 18 54 0.0 3.2 0.00 0.00 0.00 83 1003.2
20260830092003 18 54 0.0 3.2 0.00 0.00 0.00 83 1003.2
20260830091502 18 54 0.0 1.6 0.00 0.00 0.00 82 1003.1
20260830090601 18 54 1.6 4.8 0.00 0.00 0.00 80 1003.1
20260830090103 19 54 1.6 6.4 0.00 0.00 0.00 79 1002.9
20260830085557 20 54 3.2 4.8 0.00 0.00 0.00 81 1003.0
20260830085058 20 55 0.0 6.4 0.00 0.00 0.00 82 1003.0
20260830084556 20 55 3.2 6.4 0.00 0.00 0.00 82 1002.9
20260830084055 20 55 1.6 4.8 0.00 0.00 0.00 82 1003.0
20260830083557 20 55 1.6 4.8 0.00 0.00 0.00 81 1002.9
20260830083055 20 55 3.2 4.8 0.00 0.00 0.00 81 1002.9
20260830082653 21 55 3.2 4.8 0.00 0.00 0.00 81 1002.8
20260830082051 21 55 1.6 6.4 0.00 0.00 0.00 80 1003.0
20260830081551 21 55 3.2 6.4 0.00 0.00 0.00 80 1002.9
20260830080551 21 57 1.6 4.8 0.00 0.00 0.00 79 1002.9
20260830080050 21 57 0.0 4.8 0.00 0.00 0.00 79 1003.1
20260830075550 21 57 0.0 4.8 0.00 0.00 0.00 78 1003.0
20260830075050 21 53 0.0 3.2 0.00 0.00 0.00 78 1003.2
20260830074629 21 53 0.0 4.8 0.00 0.00 0.00 77 1003.3
20260830074047 21 53 1.6 6.4 0.00 0.00 0.00 76 1003.2
20260830073546 22 44 1.6 6.4 0.00 0.00 0.00 75 1003.4
20260830073053 22 44 1.6 4.8 0.00 0.00 0.00 75 1003.5
20260830072545 22 44 0.0 6.4 0.00 0.00 0.00 74 1003.6
20260830072045 22 44 3.2 8.0 0.00 0.00 0.00 74 1003.8
20260830071549 22 42 3.2 9.7 0.00 0.00 0.00 74 1003.8
20260830070549 22 44 4.8 9.7 0.00 0.00 0.00 74 1003.9
20260830070053 22 64 1.6 9.7 0.00 0.00 0.00 74 1003.9
20260830065546 22 59 4.8 11.3 0.00 0.00 0.00 73 1003.9
20260830065045 22 54 3.2 11.3 0.00 0.00 0.00 73 1003.8
20260830064545 22 50 4.8 9.7 0.00 0.00 0.00 73 1004.0
20260830064045 22 49 3.2 9.7 0.00 0.00 0.00 73 1004.0
20260830063543 22 57 3.2 9.7 0.00 0.00 0.00 73 1004.1
20260830063042 22 55 3.2 11.3 0.00 0.00 0.00 74 1003.8
20260830062543 22 42 4.8 11.3 0.00 0.00 0.00 74 1003.8
20260830062042 22 20 3.2 9.7 0.00 0.00 0.00 73 1003.8
20260830061541 22 51 3.2 9.7 0.00 0.00 0.00 72 1003.7
20260830060539 22 45 1.6 8.0 0.00 0.00 0.00 69 1004.0
20260830060038 22 45 1.6 8.0 0.00 0.00 0.00 67 1004.0
20260830055538 22 44 0.0 6.4 0.00 0.00 0.00 66 1004.0
20260830055038 22 44 0.0 6.4 0.00 0.00 0.00 65 1004.0
20260830054546 23 44 1.6 6.4 0.00 0.00 0.00 64 1004.0
20260830054037 23 44 3.2 6.4 0.00 0.00 0.00 62 1003.9
20260830053537 23 45 1.6 6.4 0.00 0.00 0.00 61 1004.0
20260830053042 23 43 3.2 14.5 0.00 0.00 0.00 60 1004.0
20260830052536 23 46 4.8 14.5 0.00 0.00 0.00 60 1004.1
20260830052036 23 48 4.8 12.9 0.00 0.00 0.00 59 1004.0
20260830051545 22 102 4.8 12.9 0.00 0.00 0.00 61 1004.0
20260830050537 22 17 0.0 4.8 0.00 0.00 0.00 55 1004.1
20260830050038 22 17 1.6 6.4 0.00 0.00 0.00 54 1004.3
20260830045536 22 17 3.2 8.0 0.00 0.00 0.00 54 1004.1
20260830045036 22 15 4.8 8.0 0.00 0.00 0.00 54 1004.0
20260830044541 23 17 4.8 8.0 0.00 0.00 0.00 52 1004.2
20260830044036 23 26 1.6 6.4 0.00 0.00 0.00 53 1004.1
20260830043535 23 19 3.2 8.0 0.00 0.00 0.00 51 1004.1
20260830043036 23 17 3.2 8.0 0.00 0.00 0.00 52 1004.1
20260830042535 23 355 1.6 6.4 0.00 0.00 0.00 52 1004.1
20260830042036 23 355 3.2 9.7 0.00 0.00 0.00 52 1004.0
20260830041604 23 349 1.6 9.7 0.00 0.00 0.00 51 1004.2
20260830040535 23 15 4.8 8.0 0.00 0.00 0.00 50 1004.2
20260830040044 24 5 3.2 8.0 0.00 0.00 0.00 49 1004.1
20260830035535 24 13 3.2 6.4 0.00 0.00 0.00 48 1004.2
20260830035034 24 13 0.0 0.0 0.00 0.00 0.00 48 1004.1
20260830034535 24 13 0.0 0.0 0.00 0.00 0.00 47 1004.1
20260830034035 24 13 0.0 3.2 0.00 0.00 0.00 46 1004.0
20260830033534 24 13 0.0 8.0 0.00 0.00 0.00 46 1004.0